When you browse on this site, cookies collect data to enhance your experience and personalize the content and advertising you see.
Visit our Privacy Policy to learn more. By continuing to use the site, you agree to this use of cookies and data.
  • In France
  • List of Countries
  • For 7 days
  • Water Temperature
  • Satellite Maps
  • Weather Map
  • Weather Widgets
  • user-avatar
    Login

    Hourly Weather Kabul

    Today, 17 June, Monday

    Time Temperature Precipitation Wind Pressure Humidity
    00:00 +19°C° 0 mm 2 mps 608 mmHg 27%
    01:00 +20°C° 0 mm 1 mps 608 mmHg 29%
    02:00 +19°C° 0 mm 1 mps 607 mmHg 30%
    03:00 +18°C° 0 mm 1 mps 607 mmHg 31%
    04:00 +18°C° 0 mm 1 mps 607 mmHg 32%
    05:00 +16°C° 0 mm 1 mps 607 mmHg 33%
    06:00 +19°C° 0 mm 1 mps 607 mmHg 29%
    07:00 +20°C° 0 mm 1 mps 608 mmHg 26%
    08:00 +22°C° 0 mm 1 mps 609 mmHg 22%
    09:00 +23°C° 0 mm 2 mps 609 mmHg 21%
    10:00 +25°C° 0 mm 2 mps 609 mmHg 19%
    11:00 +26°C° 0 mm 3 mps 610 mmHg 17%
    12:00 +27°C° 0 mm 3 mps 610 mmHg 16%
    13:00 +28°C° 0 mm 3 mps 610 mmHg 14%
    14:00 +29°C° 0 mm 3 mps 609 mmHg 13%
    15:00 +29°C° 0 mm 4 mps 609 mmHg 13%
    16:00 +29°C° 0 mm 5 mps 609 mmHg 13%
    17:00 +29°C° 0 mm 6 mps 609 mmHg 13%
    18:00 +27°C° 0 mm 5 mps 609 mmHg 16%
    19:00 +26°C° 0 mm 4 mps 608 mmHg 18%
    20:00 +24°C° 0 mm 3 mps 608 mmHg 20%
    21:00 +22°C° 0 mm 3 mps 608 mmHg 22%
    22:00 +21°C° 0 mm 3 mps 608 mmHg 23%
    23:00 +20°C° 0 mm 2 mps 608 mmHg 25%

    Tomorrow, 18 June, Tuesday

    Time Temperature Precipitation Wind Pressure Humidity
    00:00 +20°C° 0 mm 2 mps 607 mmHg 27%
    01:00 +20°C° 0 mm 1 mps 607 mmHg 29%
    02:00 +19°C° 0 mm 1 mps 606 mmHg 30%
    03:00 +18°C° 0 mm 1 mps 606 mmHg 31%
    04:00 +18°C° 0 mm 1 mps 606 mmHg 31%
    05:00 +16°C° 0 mm 1 mps 606 mmHg 32%
    06:00 +19°C° 0 mm 1 mps 606 mmHg 28%
    07:00 +20°C° 0 mm 1 mps 607 mmHg 25%
    08:00 +22°C° 0 mm 1 mps 608 mmHg 21%
    09:00 +23°C° 0 mm 1 mps 608 mmHg 19%
    10:00 +25°C° 0 mm 2 mps 609 mmHg 17%
    11:00 +26°C° 0 mm 2 mps 609 mmHg 15%
    12:00 +27°C° 0 mm 2 mps 609 mmHg 14%
    13:00 +28°C° 0 mm 2 mps 609 mmHg 13%
    14:00 +29°C° 0 mm 3 mps 609 mmHg 12%
    15:00 +29°C° 0 mm 4 mps 609 mmHg 12%
    16:00 +29°C° 0 mm 5 mps 609 mmHg 11%
    17:00 +29°C° 0 mm 6 mps 608 mmHg 11%
    18:00 +28°C° 0 mm 5 mps 608 mmHg 13%
    19:00 +26°C° 0 mm 4 mps 607 mmHg 15%
    20:00 +24°C° 0 mm 3 mps 607 mmHg 17%
    21:00 +22°C° 0 mm 3 mps 607 mmHg 19%
    22:00 +21°C° 0 mm 2 mps 607 mmHg 21%
    23:00 +21°C° 0 mm 1 mps 607 mmHg 22%

    Day after tomorrow, 19 June, Wednesday

    Time Temperature Precipitation Wind Pressure Humidity
    00:00 +20°C° 0 mm 1 mps 607 mmHg 23%
    01:00 +20°C° 0 mm 1 mps 606 mmHg 24%
    02:00 +19°C° 0 mm 1 mps 606 mmHg 25%
    03:00 +18°C° 0 mm 1 mps 606 mmHg 26%
    04:00 +18°C° 0 mm 1 mps 606 mmHg 27%
    05:00 +16°C° 0 mm 1 mps 605 mmHg 27%
    06:00 +19°C° 0 mm 1 mps 606 mmHg 24%
    07:00 +21°C° 0 mm 1 mps 607 mmHg 21%
    08:00 +22°C° 0 mm 1 mps 608 mmHg 18%
    09:00 +24°C° 0 mm 1 mps 608 mmHg 16%
    10:00 +25°C° 0 mm 1 mps 609 mmHg 15%
    11:00 +27°C° 0 mm 2 mps 609 mmHg 13%
    12:00 +27°C° 0 mm 2 mps 609 mmHg 12%
    13:00 +28°C° 0 mm 2 mps 609 mmHg 12%
    14:00 +29°C° 0 mm 1 mps 609 mmHg 11%
    15:00 +30°C° 0 mm 2 mps 609 mmHg 11%
    16:00 +30°C° 0 mm 3 mps 609 mmHg 11%
    17:00 +30°C° 0 mm 4 mps 609 mmHg 12%
    18:00 +29°C° 0 mm 4 mps 608 mmHg 14%
    19:00 +27°C° 0 mm 3 mps 608 mmHg 16%
    20:00 +26°C° 0 mm 3 mps 608 mmHg 19%
    21:00 +25°C° 0 mm 2 mps 608 mmHg 21%
    22:00 +24°C° 0 mm 2 mps 608 mmHg 23%
    23:00 +23°C° 0 mm 1 mps 608 mmHg 25%

    20 June, Thursday

    Time Temperature Precipitation Wind Pressure Humidity
    00:00 +22°C° 0 mm 1 mps 608 mmHg 26%
    01:00 +21°C° 0 mm 1 mps 607 mmHg 28%
    02:00 +21°C° 0 mm 1 mps 607 mmHg 30%
    03:00 +20°C° 0 mm 1 mps 606 mmHg 31%
    04:00 +19°C° 0 mm 1 mps 606 mmHg 33%
    05:00 +19°C° 0 mm 1 mps 606 mmHg 34%
    06:00 +20°C° 0 mm 1 mps 607 mmHg 30%
    07:00 +22°C° 0 mm 1 mps 607 mmHg 27%
    08:00 +23°C° 0 mm 1 mps 608 mmHg 23%
    09:00 +25°C° 0 mm 1 mps 609 mmHg 22%
    10:00 +26°C° 0 mm 1 mps 609 mmHg 20%
    11:00 +27°C° 0 mm 2 mps 609 mmHg 18%
    12:00 +28°C° 0.1 mm 3 mps 610 mmHg 19%
    13:00 +29°C° 0.1 mm 4 mps 610 mmHg 20%
    14:00 +30°C° 0.1 mm 5 mps 610 mmHg 21%
    15:00 +29°C° 0.1 mm 5 mps 609 mmHg 22%
    16:00 +28°C° 0.1 mm 4 mps 609 mmHg 24%
    17:00 +28°C° 0.1 mm 4 mps 609 mmHg 25%
    18:00 +27°C° 0.1 mm 3 mps 609 mmHg 28%
    19:00 +26°C° 0.1 mm 2 mps 609 mmHg 32%
    20:00 +24°C° 0.1 mm 1 mps 609 mmHg 35%
    21:00 +24°C° 0 mm 1 mps 609 mmHg 37%
    22:00 +23°C° 0 mm 1 mps 609 mmHg 39%
    23:00 +23°C° 0 mm 1 mps 609 mmHg 41%

    21 June, Friday

    Time Temperature Precipitation Wind Pressure Humidity
    00:00 +22°C° 0 mm 1 mps 609 mmHg 44%
    01:00 +21°C° 0 mm 1 mps 608 mmHg 46%
    02:00 +20°C° 0 mm 1 mps 607 mmHg 48%
    03:00 +18°C° 0 mm 0 mps 607 mmHg 49%
    04:00 +17°C° 0 mm 0 mps 607 mmHg 49%
    05:00 +17°C° 0 mm 0 mps 607 mmHg 49%
    06:00 +21°C° 0 mm 1 mps 608 mmHg 43%
    07:00 +22°C° 0 mm 1 mps 609 mmHg 37%
    08:00 +24°C° 0 mm 1 mps 610 mmHg 31%
    09:00 +25°C° 0 mm 1 mps 610 mmHg 28%
    10:00 +26°C° 0 mm 1 mps 610 mmHg 24%
    11:00 +28°C° 0 mm 1 mps 610 mmHg 20%
    12:00 +29°C° 0 mm 1 mps 610 mmHg 19%
    13:00 +30°C° 0 mm 1 mps 610 mmHg 17%
    14:00 +31°C° 0 mm 1 mps 610 mmHg 16%
    15:00 +31°C° 0 mm 2 mps 610 mmHg 16%
    16:00 +31°C° 0 mm 2 mps 610 mmHg 15%
    17:00 +31°C° 0 mm 2 mps 610 mmHg 15%
    18:00 +30°C° 0 mm 2 mps 610 mmHg 18%
    19:00 +29°C° 0 mm 3 mps 609 mmHg 20%
    20:00 +27°C° 0 mm 3 mps 609 mmHg 23%
    21:00 +26°C° 0 mm 2 mps 609 mmHg 25%
    22:00 +26°C° 0 mm 2 mps 609 mmHg 27%
    23:00 +25°C° 0 mm 1 mps 609 mmHg 29%

    22 June, Saturday

    Time Temperature Precipitation Wind Pressure Humidity
    00:00 +24°C° 0 mm 1 mps 609 mmHg 31%
    01:00 +23°C° 0 mm 1 mps 608 mmHg 32%
    02:00 +20°C° 0 mm 0 mps 608 mmHg 33%
    03:00 +20°C° 0 mm 0 mps 607 mmHg 33%
    04:00 +19°C° 0 mm 0 mps 607 mmHg 33%
    05:00 +19°C° 0 mm 0 mps 607 mmHg 34%
    06:00 +20°C° 0 mm 0 mps 608 mmHg 30%
    07:00 +24°C° 0 mm 1 mps 609 mmHg 26%
    08:00 +26°C° 0 mm 1 mps 610 mmHg 22%
    09:00 +27°C° 0 mm 1 mps 610 mmHg 20%
    10:00 +28°C° 0 mm 1 mps 611 mmHg 18%
    11:00 +30°C° 0 mm 2 mps 611 mmHg 16%
    12:00 +31°C° 0 mm 2 mps 611 mmHg 16%
    13:00 +31°C° 0 mm 3 mps 611 mmHg 16%
    14:00 +33°C° 0 mm 3 mps 611 mmHg 16%
    15:00 +33°C° 0 mm 4 mps 611 mmHg 16%
    16:00 +33°C° 0 mm 5 mps 610 mmHg 16%
    17:00 +33°C° 0 mm 5 mps 610 mmHg 16%
    18:00 +30°C° 0 mm 4 mps 610 mmHg 19%
    19:00 +29°C° 0 mm 3 mps 610 mmHg 21%
    20:00 +27°C° 0 mm 2 mps 610 mmHg 23%
    21:00 +26°C° 0 mm 2 mps 610 mmHg 24%
    22:00 +25°C° 0 mm 2 mps 610 mmHg 25%
    23:00 +24°C° 0 mm 1 mps 610 mmHg 25%
    Show more